Flag for Germany Weather past 2 weeks in Heide, Schleswig-Holstein, Germany

Now
59 °F

Scattered clouds.


Feels Like: 55 °F
Forecast: 48 / 62 °F
Wind: 23 mph from West

Location: Hohn

Current Time: Jun 3, 2015 at 1:50:16 PM

Latest Report: Jun 3, 2015 at 1:20 PM


Visibility: 6 mi

Pressure: 30.04 "Hg

Humidity: 63%

Dew point: 46 °F

Location of HeideLocation

Historic Weather in Heide — Graph

°F

Heide temperature yesterday

Maximum temperature yesterday: 61 °F (at 6:20 PM)
Minimum temperature yesterday: 48 °F (at 12:20 AM)
Average temperature yesterday: 55 °F

Past Weeks' High & Low Weather Summary

 TemperatureHumidityPressure
High64 °F (May 22, 3:20 PM)100% (May 20, 2:20 AM)30.27 "Hg (May 20, 2:20 AM)
Low36 °F (May 24, 5:20 AM)45% (May 29, 3:20 PM)29.56 "Hg (May 30, 1:20 AM)
Average52 °F76%29.93 "Hg
* Reported May 19 12:20 PM — Jun 3 12:20 PM, Heide, Weather by CustomWeather, © 2015

Note: Actual official high and low records may vary slightly from our data, if they occured in-between our weather recording intervals... More about our weather records

Advertising

Heide weather history for previous 24 hours

 ConditionsComfort  
Time TempWeatherWind HumidityBarometerVisibility
12:20 PM
Wed, Jun 3
57 °FBroken clouds.23 mph67%30.01 "HgN/A
11:20 AM57 °FBroken clouds.22 mph67%29.98 "HgN/A
10:20 AM59 °FBroken clouds.24 mph68%29.95 "HgN/A
9:20 AM57 °FPartly sunny.21 mph67%29.92 "HgN/A
8:20 AM57 °FScattered clouds.15 mph72%29.86 "HgN/A
7:20 AM57 °FPartly sunny.16 mph77%29.83 "HgN/A
6:20 AM57 °FPartly sunny.16 mph72%29.83 "HgN/A
5:20 AM57 °FPassing clouds.14 mph77%29.80 "HgN/A
4:20 AM57 °FCool.14 mph77%29.77 "Hg3 mi
3:20 AM59 °FCool.17 mph82%29.77 "Hg3 mi
2:20 AM59 °FCool.17 mph82%29.77 "Hg3 mi
1:20 AM59 °FCool.15 mph82%29.74 "Hg3 mi
12:20 AM61 °FCool.20 mph83%29.74 "Hg3 mi
11:20 PM
Tue, Jun 2
61 °FCool.17 mph83%29.71 "Hg3 mi
10:20 PM61 °FCool.21 mph83%29.71 "Hg3 mi
9:20 PM61 °FCool.18 mph83%29.71 "Hg1 mi
8:20 PM61 °FCool.16 mph83%29.68 "Hg3 mi
7:20 PM61 °FCool.16 mph77%29.71 "Hg1 mi
6:20 PM61 °FPartly sunny.20 mph77%29.68 "Hg6 mi
5:20 PM59 °FPartly sunny.16 mph82%29.68 "Hg4 mi
4:20 PM57 °FDrizzle. Fog.16 mph82%29.68 "Hg3 mi
3:20 PM55 °FPartly sunny.14 mph88%29.68 "Hg5 mi
3:00 PM55 °FPartly sunny.13 mph88%29.68 "Hg4 mi
2:20 PM54 °FFog.15 mph94%29.68 "Hg2 mi
1:20 PM54 °FDrizzle. Fog.14 mph88%29.68 "Hg2 mi
Weather by CustomWeather, © 2015

See weather overviewHow to use our weather pages